Zapata, TX

8:18 PM CDT on September 29, 2016 (GMT -0500)
Zapata

Weather History for KAPY - February, 2013

Change the Weather History Date:

Sunday, February 17, 2013

  Actual Average (KLRD) Record (KLRD)
Temperature  
Mean Temperature 60 °F 62 °F  
Max Temperature 76 °F 73 °F 95 °F (1956)
Min Temperature 44 °F 51 °F 24 °F (1903)
Degree Days  
Heating Degree Days 5 5  
Month to date heating degree days 114  
Since 1 July heating degree days 793  
Cooling Degree Days 0 2  
Month to date cooling degree days 30  
Year to date cooling degree days 58  
Growing Degree Days 10 (Base 50)    
Moisture  
Dew Point 42 °F    
Average Humidity 52    
Maximum Humidity 72    
Minimum Humidity 31    
Precipitation  
Precipitation 0.00 in 0.04 in 1.35 in (1973)
Month to date precipitation 0.57  
Year to date precipitation 1.47  
Sea Level Pressure  
Sea Level Pressure 30.08 in    
Wind  
Wind Speed 10 mph (SE)    
Max Wind Speed 22 mph    
Max Gust Speed 32 mph    
Visibility 10 miles    
Events      
T = Trace of Precipitation, MM = Missing Value Source: NWS Daily Summary

Daily Weather History Graph

Daily Weather History Graph

Search for Another Location

Airport or City:

Trip Planner

Search our weather history database for the weather conditions in past years. The results will help you decide how hot, cold, wet, or windy it might be!

Date:

Astronomy

Feb. 17, 2013 Rise Set
Actual Time 7:11 AM CST 6:30 PM CST
Civil Twilight 6:47 AM CST 6:54 PM CST
Nautical Twilight 6:20 AM CST 7:21 PM CST
Astronomical Twilight 5:53 AM CST 7:48 PM CST
Moon 11:48 AM CST (2/17) 12:46 AM CST (2/17)
Length of Visible Light 12h 06m
Length of Day
11h 19m
Waxing Crescent, 49% of the Moon is Illuminated
Feb 17
Waxing Crescent
Feb 17
First Quarter
Feb 25
Full
Mar 4
Last Quarter
Mar 11
New

Hourly Weather History & Observations

Time (CST) Temp. Windchill Dew Point Humidity Pressure Visibility Wind Dir Wind Speed Gust Speed Precip Events Conditions
12:15 AM 50.9 °F - 25.5 °F 37% 30.26 in 10.0 mi SE 6.9 mph - N/A   Clear
12:35 AM 50.0 °F - 26.2 °F 40% 30.26 in 10.0 mi SE 5.8 mph - N/A   Clear
12:55 AM 49.1 °F - 27.1 °F 43% 30.25 in 10.0 mi SE 5.8 mph - N/A   Clear
1:15 AM 47.8 °F - 27.9 °F 46% 30.25 in 10.0 mi SE 4.6 mph - N/A   Clear
1:35 AM 48.2 °F - 29.3 °F 48% 30.24 in 10.0 mi SSE 6.9 mph - N/A   Clear
1:55 AM 48.6 °F - 30.6 °F 50% 30.24 in 10.0 mi SE 6.9 mph - N/A   Clear
2:15 AM 48.2 °F - 31.1 °F 52% 30.23 in 10.0 mi SE 6.9 mph - N/A   Clear
2:35 AM 47.1 °F - 31.1 °F 54% 30.22 in 10.0 mi ESE 4.6 mph - N/A   Clear
2:55 AM 45.5 °F 43.2 °F 31.1 °F 57% 30.21 in 10.0 mi ESE 4.6 mph - N/A   Clear
3:15 AM 45.1 °F 42.0 °F 31.8 °F 60% 30.20 in 10.0 mi ESE 5.8 mph - N/A   Clear
3:35 AM 45.7 °F 42.7 °F 32.5 °F 60% 30.20 in 10.0 mi SE 5.8 mph - N/A   Clear
3:55 AM 45.5 °F 43.2 °F 32.9 °F 61% 30.20 in 10.0 mi ESE 4.6 mph - N/A   Clear
4:15 AM 44.6 °F 43.1 °F 32.9 °F 64% 30.20 in 10.0 mi ESE 3.5 mph - N/A   Clear
4:35 AM 44.6 °F 41.4 °F 32.9 °F 64% 30.19 in 10.0 mi SE 5.8 mph - N/A   Clear
4:55 AM 44.6 °F 42.2 °F 33.3 °F 64% 30.19 in 10.0 mi SE 4.6 mph - N/A   Clear
5:15 AM 44.8 °F 41.6 °F 33.8 °F 65% 30.18 in 10.0 mi SE 5.8 mph - N/A   Clear
5:35 AM 45.7 °F 42.0 °F 34.9 °F 66% 30.18 in 10.0 mi SE 6.9 mph - N/A   Clear
5:55 AM 46.0 °F 43.1 °F 35.6 °F 67% 30.18 in 10.0 mi SE 5.8 mph - N/A   Clear
6:15 AM 45.9 °F 43.6 °F 35.8 °F 68% 30.18 in 10.0 mi SE 4.6 mph - N/A   Clear
6:35 AM 45.5 °F 43.2 °F 35.6 °F 68% 30.18 in 10.0 mi SE 4.6 mph - N/A   Clear
6:55 AM 45.3 °F 43.0 °F 36.0 °F 70% 30.19 in 10.0 mi SE 4.6 mph - N/A   Clear
7:15 AM 45.1 °F - 36.0 °F 70% 30.19 in 10.0 mi Calm Calm - N/A   Clear
7:35 AM 45.3 °F - 36.1 °F 70% 30.19 in 10.0 mi Calm Calm - N/A   Clear
7:55 AM 46.8 °F - 36.9 °F 68% 30.19 in 10.0 mi ESE 3.5 mph - N/A   Clear
8:55 AM 54.9 °F - 39.2 °F 56% 30.19 in 10.0 mi SE 6.9 mph - N/A   Clear
9:15 AM 58.1 °F - 40.8 °F 53% 30.19 in 10.0 mi SSE 11.5 mph - N/A   Clear
9:35 AM 60.3 °F - 41.4 °F 50% 30.19 in 10.0 mi SE 11.5 mph - N/A   Clear
9:55 AM 62.1 °F - 41.9 °F 48% 30.19 in 10.0 mi SSE 11.5 mph 18.4 mph N/A   Clear
10:15 AM 64.0 °F - 43.0 °F 46% 30.17 in 10.0 mi SSE 15.0 mph 20.7 mph N/A   Clear
10:35 AM 66.2 °F - 43.7 °F 44% 30.16 in 10.0 mi SE 13.8 mph 24.2 mph N/A   Clear
10:55 AM 67.3 °F - 44.6 °F 44% 30.15 in 10.0 mi SSE 20.7 mph 25.3 mph N/A   Scattered Clouds
11:15 AM 68.2 °F - 44.6 °F 43% 30.14 in 10.0 mi SE 18.4 mph 24.2 mph N/A   Mostly Cloudy
11:35 AM 69.6 °F - 44.6 °F 41% 30.13 in 10.0 mi SE 21.9 mph 29.9 mph N/A   Mostly Cloudy
11:55 AM 70.0 °F - 44.6 °F 40% 30.12 in 10.0 mi SE 17.3 mph 26.5 mph N/A   Mostly Cloudy
12:15 PM 69.8 °F - 44.6 °F 40% 30.10 in 10.0 mi SSE 19.6 mph 26.5 mph N/A   Overcast
12:55 PM 72.5 °F - 43.9 °F 36% 30.07 in 10.0 mi SE 19.6 mph 24.2 mph N/A   Mostly Cloudy
1:15 PM 73.4 °F - 43.9 °F 35% 30.05 in 10.0 mi SE 18.4 mph 25.3 mph N/A   Mostly Cloudy
1:35 PM 74.3 °F - 44.2 °F 34% 30.04 in 10.0 mi SE 16.1 mph 24.2 mph N/A   Mostly Cloudy
1:55 PM 74.3 °F - 44.2 °F 34% 30.02 in 10.0 mi SE 18.4 mph 25.3 mph N/A   Mostly Cloudy
2:15 PM 74.8 °F - 44.2 °F 33% 30.01 in 10.0 mi SE 11.5 mph 27.6 mph N/A   Mostly Cloudy
2:35 PM 76.1 °F - 43.7 °F 31% 29.99 in 10.0 mi SSE 16.1 mph 32.2 mph N/A   Mostly Cloudy
2:55 PM 76.1 °F - 43.5 °F 31% 29.98 in 10.0 mi SE 17.3 mph 26.5 mph N/A   Mostly Cloudy
3:15 PM 76.5 °F - 43.7 °F 31% 29.97 in 10.0 mi SE 11.5 mph 28.8 mph N/A   Mostly Cloudy
3:35 PM 76.8 °F - 43.7 °F 31% 29.96 in 10.0 mi SSE 18.4 mph 27.6 mph N/A   Scattered Clouds
3:55 PM 76.3 °F - 44.2 °F 32% 29.95 in 10.0 mi SE 16.1 mph 31.1 mph N/A   Scattered Clouds
4:15 PM 76.3 °F - 45.0 °F 33% 29.95 in 10.0 mi SE 20.7 mph 27.6 mph N/A   Mostly Cloudy
4:35 PM 75.2 °F - 45.9 °F 35% 29.94 in 10.0 mi SE 18.4 mph 26.5 mph N/A   Scattered Clouds
4:55 PM 75.2 °F - 46.4 °F 36% 29.94 in 10.0 mi ESE 18.4 mph 28.8 mph N/A   Scattered Clouds
5:15 PM 73.8 °F - 47.3 °F 39% 29.94 in 10.0 mi SE 20.7 mph 32.2 mph N/A   Clear
5:35 PM 73.0 °F - 47.5 °F 40% 29.94 in 10.0 mi SE 16.1 mph 27.6 mph N/A   Clear
5:55 PM 71.6 °F - 48.4 °F 44% 29.94 in 10.0 mi ESE 19.6 mph 29.9 mph N/A   Clear
6:15 PM 70.5 °F - 49.1 °F 47% 29.94 in 10.0 mi SE 21.9 mph 29.9 mph N/A   Clear
6:35 PM 69.4 °F - 49.5 °F 49% 29.94 in 10.0 mi SE 19.6 mph 27.6 mph N/A   Clear
6:55 PM 68.7 °F - 50.0 °F 51% 29.94 in 10.0 mi ESE 19.6 mph 29.9 mph N/A   Clear
7:15 PM 68.0 °F - 50.2 °F 53% 29.94 in 10.0 mi ESE 13.8 mph 24.2 mph N/A   Clear
7:35 PM 67.3 °F - 50.5 °F 55% 29.94 in 10.0 mi SE 18.4 mph 23.0 mph N/A   Clear
7:55 PM 67.1 °F - 50.9 °F 56% 29.95 in 10.0 mi SE 18.4 mph 27.6 mph N/A   Clear
8:15 PM 66.9 °F - 51.1 °F 57% 29.96 in 10.0 mi ESE 17.3 mph 28.8 mph N/A   Clear
8:35 PM 66.6 °F - 51.4 °F 58% 29.96 in 10.0 mi SE 17.3 mph 24.2 mph N/A   Clear
8:55 PM 66.2 °F - 51.8 °F 60% 29.97 in 10.0 mi SE 16.1 mph 23.0 mph N/A   Clear
9:15 PM 65.8 °F - 52.0 °F 61% 29.97 in 10.0 mi SE 18.4 mph 27.6 mph N/A   Clear
9:35 PM 65.5 °F - 52.2 °F 62% 29.97 in 10.0 mi SE 17.3 mph 23.0 mph N/A   Clear
9:55 PM 65.3 °F - 52.5 °F 63% 29.97 in 10.0 mi SE 16.1 mph 24.2 mph N/A   Clear
10:15 PM 64.8 °F - 52.7 °F 65% 29.96 in 10.0 mi SE 19.6 mph 27.6 mph N/A   Clear
10:35 PM 64.6 °F - 53.6 °F 68% 29.97 in 10.0 mi SE 15.0 mph 24.2 mph N/A   Clear
10:55 PM 64.4 °F - 53.8 °F 68% 29.97 in 10.0 mi SE 15.0 mph 26.5 mph N/A   Scattered Clouds
11:15 PM 64.0 °F - 54.0 °F 70% 29.96 in 10.0 mi SE 15.0 mph 25.3 mph N/A   Scattered Clouds
11:35 PM 63.9 °F - 54.5 °F 72% 29.96 in 10.0 mi SE 16.1 mph 24.2 mph N/A   Scattered Clouds
11:55 PM 63.9 °F - 54.9 °F 72% 29.96 in 10.0 mi SE 13.8 mph 21.9 mph N/A   Scattered Clouds